Location: ????? ??????
(37.8317°N, 23.8750°E)
Time: 13:44:03
(UTC+00:00)

CZ-2C R/B - Pass Details

Date: 20 January 2021
Orbit: 785 x 870 km, 98.2° (Epoch: 03 March)

Event Time Altitude Azimuth Distance (km) Brightness Sun altitude
Exits shadow 17:45:54 36° 13° (NNE) 1,336 3.5 -25.7°
Maximum altitude 17:48:19 89° 288° (WNW) 869 2.6 -26.1°
Drops below altitude 10° 17:53:55 10° 195° (SSW) 2,505 5.4 -27.2°
Sets 17:56:18 0° 195° (SSW) 3,441 6.1 -27.7°
